Regional Weather Roundup
Issued by NWS

Home | Current Version | Previous Version | Graphics & Text | Print | Product List | Glossary On
Versions: 1 2 3 4 5 6 7 8 9 10 11 12 13 14 15 16 17 18 19 20 21 22 23 24 25 26 27 28 29 30 31 32 33 34 35 36 37 38 39 40 41 42 43 44 45 46 47 48 49 50
000
ASUS45 KCYS 281610
RWRWY

WYOMING REGIONAL WEATHER ROUNDUP
NATIONAL WEATHER SERVICE CHEYENNE WY
1000 AM MDT SAT MAR 28 2015

NOTE:  "FAIR" INDICATES FEW OR NO CLOUDS BELOW 12,000 FEET
WITH NO SIGNIFICANT WEATHER AND/OR OBSTRUCTIONS TO VISIBILITY.

WYZ001-281700-
YELLOWSTONE NATIONAL PARK

CITY           SKY/WX    TMP DP  RH WIND       PRES   REMARKS
LK YELLOWSTONE   N/A     42  28  57 VRB3      30.06F
W YELLOWSTONE  NOT AVBL

$$
WYZ002>013-054>058-071-098>099-281700-
NORTHERN WYOMING

CITY           SKY/WX    TMP DP  RH WIND       PRES   REMARKS
JACKSON        SUNNY     43  34  70 CALM      30.08F
CODY           FAIR      63  32  31 SE13      29.86F
GREYBULL       FAIR      54  33  45 S6        29.88F
WORLAND        FAIR      56  34  43 CALM      29.90F
SHERIDAN       FAIR      70  31  23 S12G18    29.81F
BUFFALO        FAIR      66  31  27 S12       29.88F
GILLETTE       FAIR      67  33  28 SW12      29.86F
HULETT         FAIR      63  32  31 SW10      29.88F
NEWCASTLE      FAIR      55  30  38 SE7       29.93F

$$
WYZ014>020-022>026-101>103-281700-
CENTRAL WYOMING

CITY           SKY/WX    TMP DP  RH WIND       PRES   REMARKS
BIG PINEY      FAIR      42  28  57 CALM      30.16F
PINEDALE       PTSUNNY   45  32  61 E5        30.16F
DUBOIS         FAIR      54  25  32 MISG      30.05F
LANDER         FAIR      56  31  38 N6        29.98F
RIVERTON       FAIR      59  28  30 S5        30.00F
CASPER         FAIR      58  29  33 SW26G36   29.99F
DOUGLAS        FAIR      61  31  32 NW3       29.98F

$$
WYZ021-027>030-104>119-281700-
SOUTHERN WYOMING

CITY           SKY/WX    TMP DP  RH WIND       PRES   REMARKS
EVANSTON       FAIR      53  28  38 SW15      30.19S
KEMMERER       FAIR      50  30  46 SW6       30.18S
FORT BRIDGER   FAIR      61  27  27 SW17G28   30.20S
ROCK SPRINGS   FAIR      52  27  38 VRB3      30.16F
DIXON          FAIR      51  30  44 CALM      30.22F
RAWLINS        FAIR      57  25  29 SW21      30.15S
SARATOGA       FAIR      55  28  35 MISG      30.18S
LARAMIE        FAIR      56  26  31 SW24G32   30.13F
CHEYENNE       FAIR      64  26  23 W16       30.08S
TORRINGTON     FAIR      57  30  35 CALM      29.97F
PINE BLUFFS    FAIR      63  28  27 W13       30.04F

$$


USA.gov is the U.S. government's official web portal to all federal, state and local government web resources and services.